Regional Weather Roundup
Issued by NWS

Home | Current Version | Previous Version | Text Only | Print | Product List | Glossary On
Versions: 1 2 3 4 5 6 7 8 9 10 11 12 13 14 15 16 17 18 19 20 21 22 23 24 25 26 27 28 29 30 31 32 33 34 35 36 37 38 39 40 41 42 43 44 45 46 47 48 49 50
000
ASUS43 KDTX 031601
RWRMI
MICHIGAN HOURLY REGIONAL WEATHER ROUNDUP
NATIONAL WEATHER SERVICE DETROIT/PONTIAC MI
1200 PM EDT MON AUG 03 2015

NOTE: "FAIR" INDICATES FEW OR NO CLOUDS BELOW 12,000 FEET WITH NO
SIGNIFICANT WEATHER AND/OR OBSTRUCTION TO VISIBILITY.

MIZ047>049-052>055-059>063-066>070-074>076-081>083-031700-
SOUTHEAST LOWER MICHIGAN

CITY           SKY/WX    TMP DP  RH WIND       PRES   REMARKS
ADRIAN         SUNNY     73  64  73 W7        29.82S
ALMA           MOSUNNY   74  64  72 W12       29.80R
ANN ARBOR      MOSUNNY   74  63  68 NW10      29.80S
BAD AXE        CLOUDY    71  60  69 W7        29.77S
CARO           SUNNY     73  62  69 SW8       29.78R
DETROIT CITY   SUNNY     76  59  55 NW10      29.79R
DETROIT        MOSUNNY   76  62  62 W7        29.80R
FLINT          MOSUNNY   75  58  55 W10       29.80R
GROSSE ILE     MOSUNNY   75  64  69 NW8       29.79R
HILLSDALE      MOSUNNY   75  67  76 SW6       29.83R
HOWELL         MOSUNNY   74  60  61 W12       29.80S

CITY           SKY/WX    TMP DP  RH WIND       PRES   REMARKS
JACKSON        MOSUNNY   74  63  68 W13       29.82R
LAMBERTVILLE   MOSUNNY   74  65  71 W9        29.82R
LANSING        MOSUNNY   73  62  68 W8        29.81R
LAPEER         PTSUNNY   73  58  59 W7        29.79S
MASON          MOSUNNY   72  61  68 W7        29.81R
MONROE         MOSUNNY   74  65  74 W12       29.79S
MT. CLEMENS    MOSUNNY   75  60  58 W13       29.77R
PONTIAC        MOSUNNY   73  58  59 W13       29.79S
PORT HURON     MOSUNNY   72  59  64 W5        29.78S
TRI CITIES     PTSUNNY   73  63  70 W10       29.78R
MIDLAND        PTSUNNY   75  58  56 SW6G17    29.76S
TROY           MOSUNNY   76  59  56 NW9       29.81R
SAGINAW HB     MOSUNNY   73  63  68 SW9G16    29.77S
$$
MIZ043>046-050>051-056>058-064>065-071>073-077>080-031700-
SOUTHWEST LOWER MICHIGAN

CITY           SKY/WX    TMP DP  RH WIND       PRES   REMARKS
BATTLE CREEK     N/A    N/A N/A N/A MISG      29.82S
BENTON HARBOR  PTSUNNY   72  64  76 NW10      29.84R
BIG RAPIDS     SUNNY     72  51  48 W13       29.79R
COLDWATER      MOSUNNY   74  64  70 W8        29.83R
FREMONT        FAIR      74  56  53 W12       29.80S
HOLLAND        SUNNY     74  63  68 W8        29.83R
GRAND RAPIDS   PTSUNNY   74  62  66 W13G23    29.80S
IONIA          PTSUNNY   75  61  61 W9        29.79S
KALAMAZOO      CLOUDY    76  62  62 NW8       29.82S
LUDINGTON      MOSUNNY   73  60  62 W7        29.80S
MARSHALL       MOSUNNY   75  64  67 W7        29.82R
MOUNT PLEASANT MOSUNNY   77  58  51 W13G18    29.77S
MUSKEGON       MOSUNNY   75  58  55 W14       29.81R
SOUTH HAVEN    SUNNY     73  63  71 NW9       29.84R
$$
MIZ016>042-031700-
NORTHERN LOWER MICHIGAN

CITY           SKY/WX    TMP DP  RH WIND       PRES   REMARKS
ALPENA         PTSUNNY   72  55  55 NW9       29.72R
BEAVER ISLAND  CLOUDY    68  55  62 W8        29.75R
BELLAIRE       CLOUDY    69  55  61 W3        29.76R
CHARLEVOIX     MOSUNNY   69  56  62 W12       29.78S
FRANKFORT      PTSUNNY   70  57  61 NW8G16    29.78R
GAYLORD        MOSUNNY   69  53  56 W14G20    29.75S
GRAYLING       CLOUDY    71  56  59 W13       29.76S
HARBOR SPRINGS MOSUNNY   68  56  64 SW9       29.74S
HOUGHTON LAKE  CLOUDY    69  56  62 W12G20    29.77R
MANISTEE       MOSUNNY   66  55  68 W8        29.80R
OSCODA         MOSUNNY   76  57  52 W9G17     29.73R
PELLSTON       CLOUDY    68  55  63 NW10      29.74R
ROGERS CITY    MOSUNNY   71  56  58 W8G17     29.73S
TRAVERSE CITY  PTSUNNY   72  56  57 NW9       29.76R
$$
MIZ007>008-015-031700-
EASTERN UPPER MICHIGAN

CITY           SKY/WX    TMP DP  RH WIND       PRES   REMARKS
KINROSS        CLOUDY    64  54  68 W9        29.72R
MACKINAC ISLAN MOSUNNY   66  56  70 W7        29.73R
NEWBERRY       CLOUDY    63  53  70 W7        29.73R
S. S. MARIE    PTSUNNY   63  53  70 NW6       29.71R
MUNISING         N/A     66  54  65 NW10      29.74R
$$
MIZ004>006-011>014-085-031700-
CENTRAL UPPER MICHIGAN

CITY           SKY/WX    TMP DP  RH WIND       PRES   REMARKS
MANISTIQUE     CLOUDY    68  52  56 NW8       29.74R
ESCANABA       MOSUNNY   72  50  46 W13G20    29.73S
MENOMINEE      MOSUNNY   72  52  49 W8        29.76S
SAWYER-GWINN   CLOUDY    66  50  55 NW12      29.74S
$$
MIZ001>003-009>011-084-031700-
WESTERN UPPER MICHIGAN

CITY           SKY/WX    TMP DP  RH WIND       PRES   REMARKS
IRON MOUNTAIN  MOSUNNY   72  49  44 W16       29.75R
HOUGHTON       CLOUDY    59  52  77 W7        29.75R
COPPER HARBOR    N/A     63  53  70 N14G20    29.71R
IRONWOOD       CLOUDY    63  52  67 W15       29.79R
$$

ABBREVIATIONS USED IN REMARKS
   TC - TEMPERATURE IN CELSIUS
  WCI - WIND CHILL INDEX
   HX - HEAT INDEX
  VSB - VISIBILITY




USA.gov is the U.S. government's official web portal to all federal, state and local government web resources and services.